User: anonymous   Login
Location: Unspecified
(0.0000°N, 0.0000°E)
Time: 23:10:32
(UTC+01:00)
Language:

Landsat 4 - Orbit

View from above orbital plane
View from above orbital plane
View from above satellite
View from above satellite

Ground track
Ground track

The orbit data is extracted from the following two-line orbital elements,

1 13367U 82072A   15087.48212042  .00006648  00000-0  38289-3 0  9990
2 13367 098.1795 175.8662 0015372 081.2565 047.0576 15.12699084762156
Epoch (UTC): 28 March 2015 11:34:15
Eccentricity: 0.0015372
inclination: 98.1795°
perigee height: 517 km
apogee height: 538 km
right ascension of ascending node: 175.8662°
argument of perigee: 81.2565°
revolutions per day: 15.12699084
mean anomaly at epoch: 47.0576°
orbit number at epoch: 76215

The dashed part of the orbit path shows where the satellite is in the earth's shadow,  

DLR